Regional Weather Roundup
Issued by NWS

Home | Current Version | Previous Version | Text Only | Print | Product List | Glossary On
Versions: 1 2 3 4 5 6 7 8 9 10 11 12 13 14 15 16 17 18 19 20 21 22 23 24 25 26 27 28 29 30 31 32 33 34 35 36 37 38 39 40 41 42 43 44 45 46 47 48 49 50
000
ASUS43 KLSX 140057
RWRMO

WEATHER SUMMARY FOR MISSOURI
NATIONAL WEATHER SERVICE SPRINGFIELD MO
700 PM CST WED DEC 13 2017

NOTE: "FAIR" INDICATES FEW OR NO CLOUDS BELOW 12,000 FEET WITH NO
       SIGNIFICANT WEATHER AND/OR OBSTRUCTIONS TO VISIBILITY.
       CURRENT SKY AND/OR WEATHER CONDITIONS ARE NOT AVAILABLE FOR
       CHILLICOTHE AND FARMINGTON.

MOZ001>031-035>038-043-044-053-054-140200-
...NORTHERN AND WESTERN MISSOURI...

CITY           SKY/WX    TMP DP  RH WIND       PRES   REMARKS
KANSAS CTY INT CLEAR     47  28  47 NW16G23   29.86R
LEE`S SUMMIT   CLEAR     49  29  46 NW13      29.85R
ST JOSEPH      CLEAR     44  30  57 N20       29.89R
CHILLICOTHE      N/A     44  27  51 N15G24    29.85R

$$
MOZ066>068-077>081-088>096-101>105-140200-
...SOUTHWEST MISSOURI...

CITY           SKY/WX    TMP DP  RH WIND       PRES   REMARKS
SPRINGFIELD    CLEAR     51  27  39 NW6       29.81R
BRANSON        CLEAR     50  25  37 W12       29.82R

$$
MOZ032>034-039>042-045>050-055>058-069>072-140200-
...CENTRAL MISSOURI...

CITY           SKY/WX    TMP DP  RH WIND       PRES   REMARKS
COLUMBIA       NOT AVBL
JEFFERSON CITY CLEAR     49  27  42 W7        29.77R
ROLLA          CLEAR     49  28  44 W10       29.76R
SEDALIA        CLEAR     49  29  46 NW13      29.82R
WARRENSBURG    CLEAR     46  27  46 NW5       29.83R

$$
MOZ051-052-059>065-140200-
...EAST CENTRAL MISSOURI...

CITY           SKY/WX    TMP DP  RH WIND       PRES   REMARKS
ST LOUIS INTL  CLEAR     48  31  51 NW14      29.70R

$$
MOZ072>076-082>087-097>100-106>115-140200-
...SOUTH CENTRAL AND SOUTHEAST MISSOURI...

CITY           SKY/WX    TMP DP  RH WIND       PRES   REMARKS
CAPE GIRARDEAU CLEAR     46  27  47 W10       29.70R
POPLAR BLUFF   CLEAR     50  26  39 SW6       29.75R
WEST PLAINS    CLEAR     48  25  40 W6        29.78R

$$


USA.gov is the U.S. government's official web portal to all federal, state and local government web resources and services.